EW8275 Weather Reports


Display with metric or nautical units.
time (UTC)temp
F
wind
direction
speed
MPH
gust
MPH
rain 1hr
in
rain 24hr
in
rain mn
in
humidity
%
barometer
mb
20260506194557 54 5 2.0 7.0 0.00 0.00 0.00 72 1011.4
20260506194101 54 11 3.0 9.0 0.00 0.00 0.00 71 1011.4
20260506193602 54 308 4.0 10.0 0.00 0.00 0.00 71 1011.4
20260506193028 54 13 4.0 10.0 0.00 0.00 0.00 70 1011.3
20260506192547 54 11 4.0 10.0 0.00 0.00 0.00 70 1011.2
20260506192043 54 16 3.0 6.0 0.00 0.00 0.00 70 1011.1
20260506191554 54 334 2.0 5.0 0.00 0.00 0.00 69 1011.1
20260506191045 54 336 2.0 5.0 0.00 0.00 0.00 69 1010.9
20260506190558 54 20 2.0 5.0 0.00 0.00 0.00 68 1010.9
20260506190041 54 49 1.0 4.0 0.00 0.00 0.00 67 1010.9
20260506185536 55 11 1.0 6.0 0.00 0.00 0.00 66 1010.8
20260506185047 55 19 3.0 7.0 0.00 0.00 0.00 66 1010.7
20260506184538 55 14 4.0 7.0 0.00 0.00 0.00 64 1010.7
20260506184041 55 343 2.0 7.0 0.00 0.00 0.00 64 1010.6
20260506183535 55 31 2.0 10.0 0.00 0.00 0.00 64 1010.6
20260506183027 55 55 4.0 10.0 0.00 0.00 0.00 63 1010.5
20260506182545 55 9 5.0 10.0 0.00 0.00 0.00 62 1010.4
20260506182029 55 9 3.0 6.0 0.00 0.00 0.00 61 1010.4
20260506181538 56 25 4.0 6.0 0.00 0.00 0.00 61 1010.3
20260506181040 56 24 3.0 7.0 0.00 0.00 0.00 60 1010.2
20260506180534 56 5 3.0 10.0 0.00 0.00 0.00 60 1010.2
20260506180051 56 5 3.0 10.0 0.00 0.00 0.00 60 1010.2
20260506175547 56 313 3.0 6.0 0.00 0.00 0.00 60 1010.1
20260506175043 56 24 3.0 6.0 0.00 0.00 0.00 62 1010.0
20260506174554 56 26 2.0 4.0 0.00 0.00 0.00 61 1009.9
20260506174031 56 5 1.0 4.0 0.00 0.00 0.00 60 1009.8
20260506173601 56 21 1.0 4.0 0.00 0.00 0.00 60 1009.8
20260506173042 56 5 1.0 4.0 0.00 0.00 0.00 59 1009.7
20260506172540 56 34 1.0 3.0 0.00 0.00 0.00 59 1009.7
20260506172029 56 15 1.0 4.0 0.00 0.00 0.00 59 1009.6
20260506171540 56 32 1.0 4.0 0.00 0.00 0.00 57 1009.5
20260506171037 57 5 2.0 5.0 0.00 0.00 0.00 57 1009.5
20260506170559 57 90 2.0 5.0 0.00 0.00 0.00 58 1009.6
20260506170044 57 31 2.0 5.0 0.00 0.00 0.00 56 1009.6
20260506165540 57 9 2.0 5.0 0.00 0.00 0.00 55 1009.5
20260506165106 57 39 2.0 5.0 0.00 0.00 0.00 57 1009.5
20260506164531 57 87 2.0 7.0 0.00 0.00 0.00 57 1009.5
20260506164027 57 70 3.0 7.0 0.00 0.00 0.00 57 1009.5
20260506163538 57 32 2.0 6.0 0.00 0.00 0.00 56 1009.5
20260506163027 57 53 3.0 6.0 0.00 0.00 0.00 55 1009.5
20260506162553 57 55 2.0 5.0 0.00 0.00 0.00 56 1009.5
20260506162039 57 99 1.0 7.0 0.00 0.00 0.00 55 1009.5
20260506161558 57 62 2.0 6.0 0.00 0.00 0.00 57 1009.5
20260506161045 57 28 3.0 6.0 0.00 0.00 0.00 54 1009.5
20260506160621 57 45 3.0 6.0 0.00 0.00 0.00 56 1009.5
20260506160106 57 350 2.0 8.0 0.00 0.00 0.00 55 1009.5
20260506155535 57 54 3.0 8.0 0.00 0.00 0.00 57 1009.4
20260506155049 57 97 3.0 7.0 0.00 0.00 0.00 57 1009.5
20260506154605 57 32 3.0 7.0 0.00 0.00 0.00 57 1009.5
20260506154101 57 108 2.0 6.0 0.00 0.00 0.00 57 1009.5
20260506153547 57 72 2.0 7.0 0.00 0.00 0.00 56 1009.4
20260506153028 57 94 2.0 5.0 0.00 0.00 0.00 56 1009.4
20260506152549 57 87 3.0 6.0 0.00 0.00 0.00 55 1009.4
20260506152036 57 36 3.0 5.0 0.00 0.00 0.00 55 1009.4
20260506151546 58 110 2.0 4.0 0.00 0.00 0.00 55 1009.4
20260506151035 58 43 1.0 6.0 0.00 0.00 0.00 56 1009.4
20260506150539 58 65 2.0 6.0 0.00 0.00 0.00 58 1009.4
20260506150050 58 96 2.0 6.0 0.00 0.00 0.00 56 1009.4
20260506145553 58 89 2.0 6.0 0.00 0.00 0.00 56 1009.3
20260506145040 58 103 2.0 4.0 0.00 0.00 0.00 57 1009.3
20260506144537 57 81 2.0 7.0 0.00 0.00 0.00 55 1009.3
20260506144100 57 71 2.0 7.0 0.00 0.00 0.00 57 1009.3
20260506143546 57 128 3.0 7.0 0.00 0.00 0.00 57 1009.3
20260506143030 58 49 3.0 8.0 0.00 0.00 0.00 56 1009.2
20260506142555 58 124 3.0 8.0 0.00 0.00 0.00 56 1009.2
20260506142054 58 74 1.0 7.0 0.00 0.00 0.00 55 1009.2
20260506141537 58 49 4.0 7.0 0.00 0.00 0.00 50 1009.3
20260506141030 58 5 5.0 7.0 0.00 0.00 0.00 51 1009.2
20260506140554 58 5 4.0 7.0 0.00 0.00 0.00 50 1009.3
20260506140029 58 261 3.0 9.0 0.00 0.00 0.00 50 1009.3
20260506135537 58 63 3.0 10.0 0.00 0.00 0.00 51 1009.3
20260506135048 59 273 5.0 10.0 0.00 0.00 0.00 51 1009.3
20260506134535 59 42 3.0 10.0 0.00 0.00 0.00 50 1009.2
20260506134039 59 58 4.0 10.0 0.00 0.00 0.00 50 1009.2
20260506133541 60 46 4.0 10.0 0.00 0.00 0.00 51 1009.2
20260506133103 60 355 3.0 10.0 0.00 0.00 0.00 53 1009.1
20260506132602 60 78 4.0 8.0 0.00 0.00 0.00 53 1009.1
20260506132037 59 38 4.0 9.0 0.00 0.00 0.00 52 1009.1
20260506131555 59 36 1.0 9.0 0.00 0.00 0.00 53 1009.0
20260506131049 59 35 3.0 9.0 0.00 0.00 0.00 53 1009.0
20260506130530 59 316 4.0 12.0 0.00 0.00 0.00 55 1009.0
20260506130030 59 15 6.0 12.0 0.00 0.00 0.00 56 1009.1
20260506125552 59 70 3.0 11.0 0.00 0.00 0.00 56 1009.0
20260506125053 58 14 5.0 13.0 0.00 0.00 0.00 56 1008.9
20260506124552 58 32 6.0 13.0 0.00 0.00 0.00 55 1008.9
20260506124041 58 340 5.0 13.0 0.00 0.00 0.00 55 1008.8
20260506123601 59 288 4.0 13.0 0.00 0.00 0.00 55 1008.8
20260506123053 59 5 5.0 11.0 0.00 0.00 0.00 54 1008.8
20260506122544 59 15 5.0 11.0 0.00 0.00 0.00 53 1008.8
20260506122046 61 360 4.0 12.0 0.00 0.00 0.00 52 1008.7
20260506121545 61 43 5.0 12.0 0.00 0.00 0.00 52 1008.6
20260506121026 60 44 4.0 11.0 0.00 0.00 0.00 54 1008.7
20260506120602 59 20 4.0 11.0 0.00 0.00 0.00 56 1008.8
20260506120050 58 28 7.0 11.0 0.00 0.00 0.00 56 1008.7
20260506115535 59 355 3.0 11.0 0.00 0.00 0.00 57 1008.6
20260506115042 60 70 5.0 12.0 0.00 0.00 0.00 56 1008.7
20260506114534 60 5 6.0 17.0 0.00 0.00 0.00 55 1008.7
20260506114102 62 46 8.0 17.0 0.00 0.00 0.00 52 1008.7
20260506113544 62 278 4.0 12.0 0.00 0.00 0.00 52 1008.7
20260506113032 62 58 5.0 10.0 0.00 0.00 0.00 53 1008.8
20260506112547 61 136 3.0 8.0 0.00 0.00 0.00 54 1008.7
20260506112026 62 316 4.0 10.0 0.00 0.00 0.00 54 1008.7
20260506111557 63 32 5.0 13.0 0.00 0.00 0.00 49 1008.7
20260506111044 64 12 5.0 14.0 0.00 0.00 0.00 48 1008.7
20260506110546 63 277 5.0 14.0 0.00 0.00 0.00 48 1008.7
20260506110048 62 53 5.0 14.0 0.00 0.00 0.00 51 1008.7
20260506105556 61 44 5.0 16.0 0.00 0.00 0.00 49 1008.7
20260506105059 61 306 5.0 15.0 0.00 0.00 0.00 56 1008.6
20260506104557 60 65 7.0 15.0 0.00 0.00 0.00 58 1008.7
20260506104109 60 34 4.0 11.0 0.00 0.00 0.00 63 1008.6
20260506103545 59 324 3.0 9.0 0.00 0.00 0.00 68 1008.6
20260506103035 58 306 6.0 9.0 0.00 0.00 0.00 66 1008.6
20260506102540 58 9 3.0 8.0 0.00 0.00 0.00 68 1008.7
20260506102036 58 25 4.0 11.0 0.00 0.00 0.00 67 1008.6
20260506101536 58 10 3.0 11.0 0.00 0.00 0.00 67 1008.5
20260506101030 58 304 3.0 11.0 0.00 0.00 0.00 67 1008.5
20260506100534 57 9 7.0 11.0 0.00 0.00 0.00 67 1008.5
20260506100056 57 5 5.0 10.0 0.00 0.00 0.00 68 1008.5
20260506095604 57 247 4.0 14.0 0.00 0.00 0.00 68 1008.5
20260506095038 58 26 7.0 14.0 0.00 0.00 0.00 64 1008.5
20260506094607 59 42 8.0 16.0 0.00 0.00 0.00 62 1008.5
20260506094034 61 37 6.0 12.0 0.00 0.00 0.00 61 1008.5
20260506093608 61 75 6.0 12.0 0.00 0.00 0.00 59 1008.4
20260506093030 60 5 6.0 13.0 0.00 0.00 0.00 59 1008.3
20260506092545 61 14 5.0 14.0 0.00 0.00 0.00 60 1008.4
20260506092028 60 53 4.0 14.0 0.00 0.00 0.00 63 1008.3
20260506091537 60 26 5.0 9.0 0.00 0.00 0.00 62 1008.3
20260506091056 59 53 3.0 10.0 0.00 0.00 0.00 63 1008.2
20260506090540 59 323 5.0 12.0 0.00 0.00 0.00 64 1008.2
20260506090109 59 46 5.0 12.0 0.00 0.00 0.00 62 1008.2
20260506085604 59 85 5.0 12.0 0.00 0.00 0.00 66 1008.2
20260506085057 59 55 3.0 9.0 0.00 0.00 0.00 69 1008.2
20260506084548 58 5 4.0 11.0 0.00 0.00 0.00 71 1008.1
20260506084100 58 345 3.0 12.0 0.00 0.00 0.00 74 1008.1
20260506083554 56 18 4.0 14.0 0.00 0.00 0.00 74 1008.1
20260506083053 56 16 5.0 14.0 0.00 0.00 0.00 74 1008.1
20260506082543 56 326 4.0 13.0 0.00 0.00 0.00 75 1008.1
20260506082026 55 55 7.0 13.0 0.00 0.00 0.00 76 1008.2
20260506081625 55 39 3.0 11.0 0.00 0.00 0.00 77 1008.1
20260506081039 55 317 5.0 13.0 0.00 0.00 0.00 77 1008.2
20260506080533 54 49 5.0 13.0 0.00 0.00 0.00 77 1008.1
20260506073025 53 65 4.0 8.0 0.00 0.00 0.00 82 1008.1
20260506072551 53 346 2.0 8.0 0.00 0.00 0.00 82 1008.1
20260506072047 52 30 2.0 8.0 0.00 0.00 0.00 83 1008.1
20260506071542 52 321 2.0 7.0 0.00 0.00 0.00 82 1008.1
20260506071034 52 336 4.0 8.0 0.00 0.00 0.00 82 1008.1
20260506070557 52 50 4.0 9.0 0.00 0.00 0.00 82 1008.1
20260506062041 51 324 2.0 12.0 0.00 0.00 0.00 83 1007.8
20260506061556 51 360 4.0 12.0 0.00 0.00 0.00 83 1007.8
20260506061038 51 321 4.0 9.0 0.00 0.00 0.00 83 1007.8
20260506060531 51 319 3.0 11.0 0.00 0.00 0.00 83 1007.8
20260506051034 50 41 2.0 5.0 0.00 0.00 0.00 86 1007.8
20260506050545 50 53 2.0 7.0 0.00 0.00 0.00 86 1007.8
20260506045048 50 40 2.0 6.0 0.00 0.00 0.00 87 1007.8
20260506044548 50 47 2.0 5.0 0.00 0.00 0.00 87 1007.8
20260506044044 50 333 2.0 6.0 0.00 0.00 0.00 87 1007.9
20260506043533 49 19 3.0 6.0 0.00 0.00 0.00 88 1007.8
20260506043039 49 5 3.0 6.0 0.00 0.00 0.00 88 1007.9
20260506042534 49 322 1.0 5.0 0.00 0.00 0.00 88 1007.8
20260506042049 49 5 1.0 5.0 0.00 0.00 0.00 88 1007.9
20260506041557 49 355 2.0 5.0 0.00 0.00 0.00 88 1007.9
20260506041029 49 33 2.0 6.0 0.00 0.00 0.00 87 1007.9
20260506040537 49 360 2.0 7.0 0.00 0.00 0.00 86 1007.9
20260506035544 50 41 4.0 7.0 0.00 0.00 0.00 85 1008.0
20260506035047 50 355 2.0 7.0 0.00 0.00 0.00 85 1008.0
20260506034557 50 16 2.0 7.0 0.00 0.00 0.00 85 1008.0
20260506034035 50 24 3.0 8.0 0.00 0.00 0.00 85 1008.0
20260506033603 50 5 2.0 8.0 0.00 0.00 0.00 85 1008.0
20260506033051 50 43 3.0 5.0 0.00 0.00 0.00 85 1008.1
20260506032536 50 59 2.0 6.0 0.00 0.00 0.00 84 1008.1
20260506032027 50 34 2.0 6.0 0.00 0.00 0.00 84 1008.1
20260506031552 50 18 3.0 7.0 0.00 0.00 0.00 84 1008.1
20260506031041 50 360 2.0 9.0 0.00 0.00 0.00 84 1008.1
20260506030546 50 26 2.0 5.0 0.00 0.00 0.00 84 1008.1
20260506030030 50 50 3.0 7.0 0.00 0.00 0.00 84 1008.2
20260506025552 50 57 4.0 7.0 0.00 0.00 0.00 84 1008.2
20260506025030 50 304 4.0 8.0 0.00 0.00 0.00 84 1008.2
20260506024600 50 5 3.0 8.0 0.00 0.00 0.00 84 1008.3
20260506024048 50 30 3.0 8.0 0.00 0.00 0.00 84 1008.3
20260506023536 50 5 3.0 7.0 0.00 0.00 0.00 84 1008.3
20260506023042 49 24 3.0 7.0 0.00 0.00 0.00 84 1008.2
20260506022532 49 32 2.0 8.0 0.00 0.00 0.00 84 1008.3
20260506022037 49 33 4.0 8.0 0.00 0.00 0.00 84 1008.3
20260506021535 49 37 3.0 7.0 0.00 0.00 0.00 84 1008.3
20260506021029 49 355 4.0 7.0 0.00 0.00 0.00 85 1008.3
20260506020548 49 25 2.0 9.0 0.00 0.00 0.00 85 1008.3
20260506020031 49 19 3.0 9.0 0.00 0.00 0.00 85 1008.4
20260506015532 49 314 3.0 7.0 0.00 0.00 0.00 85 1008.4
20260506015030 49 19 2.0 8.0 0.00 0.00 0.00 85 1008.4
20260506014555 48 22 3.0 8.0 0.00 0.00 0.00 85 1008.3
20260506014039 48 348 3.0 8.0 0.00 0.00 0.00 85 1008.3
20260506013549 48 36 3.0 7.0 0.00 0.00 0.00 86 1008.4
20260506013040 48 338 3.0 7.0 0.00 0.00 0.00 86 1008.4
20260506012529 48 5 2.0 7.0 0.00 0.00 0.00 86 1008.4
20260506012040 48 19 4.0 7.0 0.00 0.00 0.00 87 1008.4
20260506011534 48 325 2.0 5.0 0.00 0.00 0.00 86 1008.4
20260506011048 48 331 1.0 4.0 0.00 0.00 0.00 86 1008.5
20260506010540 48 9 1.0 4.0 0.00 0.00 0.00 86 1008.5
20260506010040 48 355 1.0 3.0 0.00 0.00 0.00 86 1008.5
20260506005542 48 5 1.0 3.0 0.00 0.00 0.00 85 1008.6
20260506005055 48 329 1.0 6.0 0.00 0.00 0.00 85 1008.7
20260506004549 49 360 2.0 6.0 0.00 0.00 0.00 85 1008.8
20260506004031 49 18 1.0 5.0 0.00 0.00 0.00 85 1008.8
20260506003556 49 5 2.0 5.0 0.00 0.00 0.00 84 1008.8
20260506003036 49 30 1.0 5.0 0.00 0.00 0.00 84 1008.9
20260506002603 49 11 2.0 4.0 0.00 0.00 0.00 84 1008.9
20260506002110 49 336 1.0 3.0 0.00 0.00 0.00 84 1009.0
20260506001626 49 336 1.0 3.0 0.00 0.00 0.00 84 1009.0
20260506001051 49 346 1.0 3.0 0.00 0.00 0.00 84 1009.0
20260506000547 49 335 1.0 6.0 0.00 0.00 0.00 83 1009.0
20260506000038 49 13 2.0 6.0 0.00 0.00 0.00 83 1009.0
20260505235603 49 22 2.0 7.0 0.00 0.00 0.00 83 1009.1
20260505235039 49 5 2.0 6.0 0.00 0.00 0.00 83 1009.1
20260505234537 49 19 3.0 6.0 0.00 0.00 0.00 83 1009.1
20260505234031 49 355 1.0 6.0 0.00 0.00 0.00 82 1009.1
20260505233532 49 41 2.0 6.0 0.00 0.00 0.00 82 1009.2
20260505233036 48 9 2.0 6.0 0.00 0.00 0.00 82 1009.2
20260505232604 48 60 3.0 6.0 0.00 0.00 0.00 82 1009.3
20260505232028 48 12 2.0 5.0 0.00 0.00 0.00 83 1009.3
20260505231541 48 5 3.0 6.0 0.00 0.00 0.00 83 1009.4
20260505231055 48 355 3.0 7.0 0.00 0.00 0.00 82 1009.5
20260505230556 48 47 2.0 7.0 0.00 0.00 0.00 82 1009.5
20260505230025 48 360 2.0 5.0 0.00 0.00 0.00 82 1009.5
20260505225537 48 360 2.0 6.0 0.00 0.00 0.00 82 1009.5
20260505225033 48 38 3.0 6.0 0.00 0.00 0.00 82 1009.5
20260505224540 48 30 2.0 6.0 0.00 0.00 0.00 82 1009.5
20260505224046 48 5 3.0 6.0 0.00 0.00 0.00 81 1009.5
20260505223543 48 28 2.0 6.0 0.00 0.00 0.00 81 1009.5
20260505223029 48 349 3.0 7.0 0.00 0.00 0.00 81 1009.5
20260505222535 48 24 3.0 8.0 0.00 0.00 0.00 81 1009.5
20260505222037 48 360 2.0 8.0 0.00 0.00 0.00 80 1009.6
20260505221553 49 44 3.0 8.0 0.00 0.00 0.00 80 1009.6
20260505221045 49 344 2.0 6.0 0.00 0.00 0.00 80 1009.6
20260505220532 49 355 2.0 6.0 0.00 0.00 0.00 80 1009.6
20260505220049 49 31 2.0 6.0 0.00 0.00 0.00 80 1009.7
20260505215537 49 321 2.0 6.0 0.00 0.00 0.00 79 1009.7
20260505215041 49 39 2.0 7.0 0.00 0.00 0.00 79 1009.7
20260505214542 49 323 3.0 7.0 0.00 0.00 0.00 79 1009.8
20260505214036 49 319 3.0 6.0 0.00 0.00 0.00 79 1009.8
20260505213550 49 355 2.0 6.0 0.00 0.00 0.00 79 1009.8
20260505213111 49 24 3.0 6.0 0.00 0.00 0.00 79 1009.8
20260505212535 49 19 2.0 7.0 0.00 0.00 0.00 79 1009.9
20260505212042 49 26 3.0 7.0 0.00 0.00 0.00 78 1009.9
20260505211531 49 360 3.0 7.0 0.00 0.00 0.00 78 1009.9
20260505211037 50 19 2.0 9.0 0.00 0.00 0.00 78 1009.8
20260505210530 50 264 4.0 9.0 0.00 0.00 0.00 79 1009.9
20260505210029 50 22 3.0 9.0 0.00 0.00 0.00 79 1009.9
20260505205602 50 5 3.0 9.0 0.00 0.00 0.00 79 1010.0
20260505205040 50 16 3.0 8.0 0.00 0.00 0.00 80 1010.1
20260505204551 50 23 3.0 7.0 0.00 0.00 0.00 80 1010.0
20260505204025 50 37 2.0 5.0 0.00 0.00 0.00 81 1010.1
20260505203559 50 5 2.0 9.0 0.00 0.00 0.00 81 1010.1
20260505203046 50 30 3.0 7.0 0.00 0.00 0.00 81 1010.1
20260505202548 50 11 2.0 4.0 0.00 0.00 0.00 80 1010.1
20260505202119 50 49 2.0 6.0 0.00 0.00 0.00 80 1010.0
20260505201542 50 51 2.0 6.0 0.00 0.00 0.00 80 1010.0
20260505201033 50 355 3.0 5.0 0.00 0.00 0.00 80 1010.1
20260505200549 50 24 3.0 7.0 0.00 0.00 0.00 79 1010.0
20260505200029 51 349 3.0 8.0 0.00 0.00 0.00 79 1010.0
20260505195530 51 29 3.0 8.0 0.00 0.00 0.00 79 1010.0
20260505195033 51 360 3.0 8.0 0.00 0.00 0.00 78 1009.9